Location: Unspecified
(22.6800°N, 112.2000°E)
Time: 09:45:40
(UTC+08:00)

S-56A Canister/Altair - Pass Details

Date: 02 August 2021
Orbit: 632 x 2500 km, 38.9° (Epoch: 27 September)

Event Time Altitude Azimuth Distance (km) Brightness Sun altitude
Rises 18:50:54 0° 298° (WNW) 6,077 14.4 3.8°
Reaches altitude 10° 18:55:08 10° 304° (NW) 5,142 13.5 2.8°
Maximum altitude 19:09:34 47° 15° (NNE) 2,939 10.6 -0.3°
Drops below altitude 10° 19:21:45 10° 86° (E) 4,406 10.8 -3.0°
Enters shadow 19:24:39 - 92° (E) 5,081 11.1 -3.6°
Sets 19:25:03 0° 92° (E) 5,176 - -3.7°
